Time,TemperatureF,DewpointF,PressureIn,WindDirection,WindDirectionDegrees,WindSpeedMPH,WindSpeedGustMPH,Humidity,HourlyPrecipIn,Conditions,Clouds,dailyrainin,SolarRadiationWatts/m^2,SoftwareType,DateUTC
2016-02-14 00:04:00,63.3,50.5,30.21,NE,50,3.8,5.8,63,0.00,CLR,SKC,0.00,0.0,WeatherDisplay:10.37,2016-02-14 05:04:00,
2016-02-14 00:09:00,63.2,50.8,30.21,North,11,4.0,8.0,64,0.00,CLR,SKC,0.00,0.0,WeatherDisplay:10.37,2016-02-14 05:09:00,
2016-02-14 00:14:00,63.3,51.3,30.21,NNE,32,6.0,9.2,65,0.00,CLR,SKC,0.00,0.0,WeatherDisplay:10.37,2016-02-14 05:14:00,
2016-02-14 00:19:00,63.3,51.3,30.21,NE,37,6.6,11.5,65,0.00,CLR,SKC,0.00,0.0,WeatherDisplay:10.37,2016-02-14 05:19:00,
2016-02-14 00:24:00,63.4,51.4,30.21,NNE,31,4.8,9.2,65,0.00,CLR,SKC,0.00,0.0,WeatherDisplay:10.37,2016-02-14 05:24:00,
2016-02-14 00:29:00,63.4,51.4,30.21,NNE,25,3.9,6.0,65,0.00,CLR,SKC,0.00,0.0,WeatherDisplay:10.37,2016-02-14 05:29:00,
2016-02-14 00:34:00,63.3,50.9,30.21,ENE,57,3.9,5.8,64,0.00,CLR,SKC,0.00,0.0,WeatherDisplay:10.37,2016-02-14 05:34:00,
2016-02-14 00:39:00,63.2,50.8,30.21,NNE,32,6.0,11.5,64,0.00,CLR,SKC,0.00,0.0,WeatherDisplay:10.37,2016-02-14 05:39:00,
2016-02-14 00:44:00,63.0,50.6,30.21,NE,40,4.2,6.9,64,0.00,CLR,SKC,0.00,0.0,WeatherDisplay:10.37,2016-02-14 05:44:00,
2016-02-14 00:49:00,63.0,50.6,30.21,NNE,27,2.7,4.6,64,0.00,CLR,SKC,0.00,0.0,WeatherDisplay:10.37,2016-02-14 05:49:00,
2016-02-14 00:54:00,62.9,50.5,30.21,NNE,25,2.8,7.0,64,0.00,CLR,SKC,0.00,0.0,WeatherDisplay:10.37,2016-02-14 05:54:00,
2016-02-14 01:04:00,62.7,50.3,30.21,NNE,21,2.7,3.5,64,0.00,CLR,SKC,0.00,0.0,WeatherDisplay:10.37,2016-02-14 06:04:00,
2016-02-14 01:09:00,62.5,50.2,30.21,North,349,3.1,8.1,64,0.00,CLR,SKC,0.00,0.0,WeatherDisplay:10.37,2016-02-14 06:09:00,
2016-02-14 01:14:00,62.4,50.1,30.21,NNE,13,3.4,4.0,64,0.00,CLR,SKC,0.00,0.0,WeatherDisplay:10.37,2016-02-14 06:14:00,
2016-02-14 01:19:00,62.3,50.0,30.20,NNE,22,3.3,6.9,64,0.00,CLR,SKC,0.00,0.0,WeatherDisplay:10.37,2016-02-14 06:19:00,
2016-02-14 01:24:00,62.2,49.9,30.20,NE,38,3.0,4.6,64,0.00,CLR,SKC,0.00,0.0,WeatherDisplay:10.37,2016-02-14 06:24:00,
2016-02-14 01:29:00,62.2,49.9,30.20,NNE,23,4.3,5.8,64,0.00,CLR,SKC,0.00,0.0,WeatherDisplay:10.37,2016-02-14 06:29:00,
2016-02-14 01:34:00,62.2,49.9,30.20,NE,46,3.9,5.0,64,0.00,CLR,SKC,0.00,0.0,WeatherDisplay:10.37,2016-02-14 06:34:00,
2016-02-14 01:39:00,62.1,50.2,30.20,NNE,28,4.2,10.0,65,0.00,CLR,SKC,0.00,0.0,WeatherDisplay:10.37,2016-02-14 06:39:00,
2016-02-14 01:44:00,62.2,50.3,30.19,NNE,17,3.0,3.5,65,0.00,CLR,SKC,0.00,0.0,WeatherDisplay:10.37,2016-02-14 06:44:00,
2016-02-14 01:49:00,62.2,50.3,30.19,NE,46,4.4,6.9,65,0.00,CLR,SKC,0.00,0.0,WeatherDisplay:10.37,2016-02-14 06:49:00,
2016-02-14 01:54:00,62.3,50.0,30.19,NE,43,5.4,8.1,64,0.00,CLR,SKC,0.00,0.0,WeatherDisplay:10.37,2016-02-14 06:54:00,
2016-02-14 01:59:00,62.5,50.2,30.19,NE,52,3.9,6.9,64,0.00,CLR,SKC,0.00,0.0,WeatherDisplay:10.37,2016-02-14 06:59:00,
2016-02-14 02:04:00,62.5,50.6,30.19,NNE,13,3.7,5.8,65,0.00,CLR,SKC,0.00,0.0,WeatherDisplay:10.37,2016-02-14 07:04:00,
2016-02-14 02:09:00,62.4,50.5,30.18,NNE,17,4.2,6.9,65,0.00,CLR,SKC,0.00,0.0,WeatherDisplay:10.37,2016-02-14 07:09:00,
2016-02-14 02:14:00,62.3,50.0,30.19,NNE,32,5.2,9.2,64,0.00,CLR,SKC,0.00,0.0,WeatherDisplay:10.37,2016-02-14 07:14:00,
2016-02-14 02:24:00,62.0,49.7,30.18,NNE,19,4.7,8.1,64,0.00,CLR,SKC,0.00,0.0,WeatherDisplay:10.37,2016-02-14 07:24:00,
2016-02-14 02:29:00,62.0,49.3,30.18,NNE,32,4.3,8.1,63,0.00,CLR,SKC,0.00,0.0,WeatherDisplay:10.37,2016-02-14 07:29:00,
2016-02-14 02:39:00,61.9,49.6,30.17,North,351,2.7,3.5,64,0.00,CLR,SKC,0.00,0.0,WeatherDisplay:10.37,2016-02-14 07:39:00,
2016-02-14 02:44:00,61.7,49.4,30.17,NNE,22,3.2,5.0,64,0.00,CLR,SKC,0.00,0.0,WeatherDisplay:10.37,2016-02-14 07:44:00,
2016-02-14 02:49:00,61.7,49.4,30.17,ENE,58,4.0,5.8,64,0.00,CLR,SKC,0.00,0.0,WeatherDisplay:10.37,2016-02-14 07:49:00,
2016-02-14 02:54:00,61.7,49.8,30.17,NNE,15,4.8,6.9,65,0.00,CLR,SKC,0.00,0.0,WeatherDisplay:10.37,2016-02-14 07:54:00,
2016-02-14 02:59:00,61.8,49.5,30.17,NNE,17,5.4,8.1,64,0.00,CLR,SKC,0.00,0.0,WeatherDisplay:10.37,2016-02-14 07:59:00,
2016-02-14 03:04:00,61.9,49.6,30.17,NNE,30,3.2,7.0,64,0.00,CLR,SKC,0.00,0.0,WeatherDisplay:10.37,2016-02-14 08:04:00,
2016-02-14 03:09:00,62.0,49.7,30.17,North,5,5.5,9.2,64,0.00,CLR,SKC,0.00,0.0,WeatherDisplay:10.37,2016-02-14 08:09:00,
2016-02-14 03:14:00,62.1,49.8,30.17,NNW,344,4.9,6.9,64,0.00,CLR,SKC,0.00,0.0,WeatherDisplay:10.37,2016-02-14 08:14:00,
2016-02-14 03:19:00,62.0,49.7,30.17,North,7,4.1,5.8,64,0.00,CLR,SKC,0.00,0.0,WeatherDisplay:10.37,2016-02-14 08:19:00,
2016-02-14 03:24:00,62.0,49.7,30.17,NE,40,4.2,5.8,64,0.00,CLR,SKC,0.00,0.0,WeatherDisplay:10.37,2016-02-14 08:24:00,
2016-02-14 03:29:00,61.8,49.9,30.17,NE,34,2.6,3.5,65,0.00,CLR,SKC,0.00,0.0,WeatherDisplay:10.37,2016-02-14 08:29:00,
2016-02-14 03:34:00,61.7,49.8,30.17,NNE,16,3.3,4.6,65,0.00,CLR,SKC,0.00,0.0,WeatherDisplay:10.37,2016-02-14 08:34:00,
2016-02-14 03:39:00,61.6,50.1,30.17,NNE,30,5.1,9.2,66,0.00,CLR,SKC,0.00,0.0,WeatherDisplay:10.37,2016-02-14 08:39:00,
2016-02-14 03:44:00,61.6,50.1,30.17,NNE,22,4.7,8.1,66,0.00,CLR,SKC,0.00,0.0,WeatherDisplay:10.37,2016-02-14 08:44:00,
2016-02-14 03:54:00,61.8,50.3,30.17,NNE,23,3.8,8.1,66,0.00,CLR,SKC,0.00,0.0,WeatherDisplay:10.37,2016-02-14 08:54:00,
2016-02-14 03:59:00,61.8,49.9,30.17,NNE,23,4.8,8.1,65,0.00,CLR,SKC,0.00,0.0,WeatherDisplay:10.37,2016-02-14 08:59:00,
2016-02-14 04:04:00,61.7,49.4,30.17,NNE,30,3.2,3.5,64,0.00,CLR,SKC,0.00,0.0,WeatherDisplay:10.37,2016-02-14 09:04:00,
2016-02-14 04:09:00,61.7,49.4,30.17,North,356,3.0,4.0,64,0.00,CLR,SKC,0.00,0.0,WeatherDisplay:10.37,2016-02-14 09:09:00,
2016-02-14 04:14:00,61.6,49.3,30.17,NE,42,3.3,4.0,64,0.00,CLR,SKC,0.00,0.0,WeatherDisplay:10.37,2016-02-14 09:14:00,
2016-02-14 04:19:00,61.5,49.6,30.17,NE,42,2.5,4.6,65,0.00,CLR,SKC,0.00,0.0,WeatherDisplay:10.37,2016-02-14 09:19:00,
2016-02-14 04:24:00,61.4,49.9,30.17,NE,44,2.6,3.5,66,0.00,CLR,SKC,0.00,0.0,WeatherDisplay:10.37,2016-02-14 09:24:00,
2016-02-14 04:29:00,61.2,49.7,30.17,NNE,21,4.8,8.1,66,0.00,CLR,SKC,0.00,0.0,WeatherDisplay:10.37,2016-02-14 09:29:00,
2016-02-14 04:34:00,61.3,49.8,30.17,NNE,16,2.4,3.5,66,0.00,CLR,SKC,0.00,0.0,WeatherDisplay:10.37,2016-02-14 09:34:00,
2016-02-14 04:39:00,61.3,50.6,30.17,NE,36,4.2,6.0,68,0.00,CLR,SKC,0.00,0.0,WeatherDisplay:10.37,2016-02-14 09:39:00,
2016-02-14 04:44:00,61.6,51.3,30.16,NNW,347,6.8,9.2,69,0.00,CLR,SKC,0.00,0.0,WeatherDisplay:10.37,2016-02-14 09:44:00,
2016-02-14 04:49:00,61.9,51.6,30.16,NNE,21,4.6,6.9,69,0.00,CLR,SKC,0.00,0.0,WeatherDisplay:10.37,2016-02-14 09:49:00,
2016-02-14 04:54:00,62.1,51.4,30.16,North,1,3.5,9.2,68,0.00,CLR,SKC,0.00,0.0,WeatherDisplay:10.37,2016-02-14 09:54:00,
2016-02-14 04:59:00,62.1,51.4,30.16,North,359,4.1,6.9,68,0.00,CLR,SKC,0.00,0.0,WeatherDisplay:10.37,2016-02-14 09:59:00,
2016-02-14 05:09:00,62.1,51.0,30.17,NE,41,4.0,5.8,67,0.00,CLR,SKC,0.00,0.0,WeatherDisplay:10.37,2016-02-14 10:09:00,
2016-02-14 05:14:00,62.0,50.9,30.17,NNE,17,4.1,5.8,67,0.00,CLR,SKC,0.00,0.0,WeatherDisplay:10.37,2016-02-14 10:14:00,
2016-02-14 05:19:00,61.8,50.7,30.17,NE,34,3.5,4.6,67,0.00,CLR,SKC,0.00,0.0,WeatherDisplay:10.37,2016-02-14 10:19:00,
2016-02-14 05:24:00,61.7,50.6,30.17,NE,38,7.0,10.4,67,0.00,CLR,SKC,0.00,0.0,WeatherDisplay:10.37,2016-02-14 10:24:00,
2016-02-14 05:29:00,61.8,50.3,30.17,ENE,63,5.1,6.9,66,0.00,CLR,SKC,0.00,0.0,WeatherDisplay:10.37,2016-02-14 10:29:00,
2016-02-14 05:34:00,61.7,50.6,30.18,NNE,30,4.4,7.0,67,0.00,CLR,SKC,0.00,0.0,WeatherDisplay:10.37,2016-02-14 10:34:00,
2016-02-14 05:39:00,61.7,50.6,30.18,ENE,62,3.1,5.8,67,0.00,CLR,SKC,0.00,0.0,WeatherDisplay:10.37,2016-02-14 10:39:00,
2016-02-14 05:44:00,61.6,50.5,30.18,NE,53,4.9,8.1,67,0.00,CLR,SKC,0.00,0.0,WeatherDisplay:10.37,2016-02-14 10:44:00,
2016-02-14 05:49:00,61.6,50.9,30.18,NE,51,4.2,9.0,68,0.00,CLR,SKC,0.00,0.0,WeatherDisplay:10.37,2016-02-14 10:49:00,
2016-02-14 05:54:00,61.7,51.0,30.17,NE,47,3.9,9.0,68,0.00,CLR,SKC,0.00,0.0,WeatherDisplay:10.37,2016-02-14 10:54:00,
2016-02-14 05:59:00,61.9,50.8,30.17,NE,36,6.3,10.0,67,0.00,CLR,SKC,0.00,0.0,WeatherDisplay:10.37,2016-02-14 10:59:00,
2016-02-14 06:04:00,62.0,50.9,30.17,NE,39,4.5,8.0,67,0.00,CLR,SKC,0.00,0.0,WeatherDisplay:10.37,2016-02-14 11:04:00,
2016-02-14 06:09:00,62.0,50.9,30.18,NE,38,6.2,10.4,67,0.00,CLR,SKC,0.00,0.0,WeatherDisplay:10.37,2016-02-14 11:09:00,
2016-02-14 06:14:00,62.0,50.9,30.18,NE,48,2.4,3.5,67,0.00,CLR,SKC,0.00,0.0,WeatherDisplay:10.37,2016-02-14 11:14:00,
2016-02-14 06:19:00,62.0,50.1,30.18,NE,38,2.7,6.9,65,0.00,CLR,SKC,0.00,0.0,WeatherDisplay:10.37,2016-02-14 11:19:00,
2016-02-14 06:24:00,62.0,50.1,30.18,NNE,31,2.2,3.5,65,0.00,CLR,SKC,0.00,0.0,WeatherDisplay:10.37,2016-02-14 11:24:00,
2016-02-14 06:29:00,61.9,50.4,30.18,NNE,12,5.0,8.1,66,0.00,OVC,SKC,0.00,0.0,WeatherDisplay:10.37,2016-02-14 11:29:00,
2016-02-14 06:34:00,62.0,51.3,30.19,NE,42,2.8,12.0,68,0.00,OVC,SKC,0.00,0.0,WeatherDisplay:10.37,2016-02-14 11:34:00,
2016-02-14 06:39:00,62.1,51.4,30.19,North,4,2.8,3.5,68,0.00,OVC,SKC,0.00,0.0,WeatherDisplay:10.37,2016-02-14 11:39:00,
2016-02-14 06:44:00,62.2,51.1,30.19,East,80,2.2,5.8,67,0.00,OVC,SKC,0.00,0.0,WeatherDisplay:10.37,2016-02-14 11:44:00,
2016-02-14 06:49:00,62.2,51.1,30.19,NNE,28,3.1,5.0,67,0.00,OVC,SKC,0.00,0.0,WeatherDisplay:10.37,2016-02-14 11:49:00,
2016-02-14 06:54:00,62.2,51.1,30.19,ESE,113,2.3,4.0,67,0.00,OVC,SKC,0.00,0.0,WeatherDisplay:10.37,2016-02-14 11:54:00,
2016-02-14 06:59:00,62.3,51.6,30.19,ESE,121,3.0,4.6,68,0.00,OVC,SKC,0.00,0.0,WeatherDisplay:10.37,2016-02-14 11:59:00,
2016-02-14 07:09:00,62.6,51.5,30.19,ENE,61,1.9,3.5,67,0.00,BKN,SKC,0.00,11.0,WeatherDisplay:10.37,2016-02-14 12:09:00,
2016-02-14 07:14:00,62.7,51.6,30.19,NNE,23,3.5,6.9,67,0.00,BKN,SKC,0.00,12.0,WeatherDisplay:10.37,2016-02-14 12:14:00,
2016-02-14 07:19:00,62.7,51.6,30.19,NE,44,3.7,6.9,67,0.00,BKN,SKC,0.00,19.0,WeatherDisplay:10.37,2016-02-14 12:19:00,
2016-02-14 07:24:00,62.8,51.7,30.19,ENE,62,2.0,5.8,67,0.00,BKN,SKC,0.00,25.0,WeatherDisplay:10.37,2016-02-14 12:24:00,
2016-02-14 07:29:00,62.9,52.2,30.20,SE,141,3.3,6.9,68,0.00,SCT,SKC,0.00,37.0,WeatherDisplay:10.37,2016-02-14 12:29:00,
2016-02-14 07:34:00,63.1,52.4,30.20,NNE,19,5.3,11.5,68,0.00,BKN,SKC,0.00,37.0,WeatherDisplay:10.37,2016-02-14 12:34:00,
2016-02-14 07:39:00,63.4,52.2,30.20,NE,39,3.4,5.8,67,0.00,SCT,SKC,0.00,51.0,WeatherDisplay:10.37,2016-02-14 12:39:00,
2016-02-14 07:44:00,63.6,52.4,30.20,NE,44,4.5,6.9,67,0.00,SCT,SKC,0.00,118.0,WeatherDisplay:10.37,2016-02-14 12:44:00,
2016-02-14 07:49:00,63.8,52.6,30.20,NE,36,3.4,5.8,67,0.00,CLR,SKC,0.00,204.0,WeatherDisplay:10.37,2016-02-14 12:49:00,
2016-02-14 07:54:00,64.3,53.1,30.20,East,92,5.9,8.1,67,0.00,CLR,SKC,0.00,239.0,WeatherDisplay:10.37,2016-02-14 12:54:00,
2016-02-14 07:59:00,64.6,52.6,30.20,ENE,66,5.0,12.7,65,0.00,CLR,SKC,0.00,114.0,WeatherDisplay:10.37,2016-02-14 12:59:00,
2016-02-14 08:09:00,65.0,52.9,30.21,NE,53,3.9,8.1,65,0.00,CLR,SKC,0.00,63.0,WeatherDisplay:10.37,2016-02-14 13:09:00,
2016-02-14 08:14:00,65.1,53.0,30.21,ESE,107,4.3,5.8,65,0.00,SCT,SKC,0.00,77.0,WeatherDisplay:10.37,2016-02-14 13:14:00,
2016-02-14 08:24:00,64.7,52.7,30.22,East,89,2.6,5.0,65,0.00,BKN,SKC,0.00,51.0,WeatherDisplay:10.37,2016-02-14 13:24:00,
2016-02-14 08:39:00,65.1,53.9,30.22,ENE,60,3.7,10.4,67,0.00,SCT,SKC,0.00,390.0,WeatherDisplay:10.37,2016-02-14 13:39:00,
2016-02-14 08:49:00,65.6,53.9,30.22,NE,37,4.3,5.8,66,0.00,SCT,SKC,0.00,102.0,WeatherDisplay:10.37,2016-02-14 13:49:00,
2016-02-14 08:54:00,66.2,53.7,30.22,NE,53,4.8,9.2,64,0.00,BKN,SKC,0.00,462.0,WeatherDisplay:10.37,2016-02-14 13:54:00,
2016-02-14 08:59:00,66.7,53.7,30.22,NE,34,3.6,5.8,63,0.00,SCT,SKC,0.00,471.0,WeatherDisplay:10.37,2016-02-14 13:59:00,
2016-02-14 09:04:00,67.0,53.5,30.22,NNW,339,6.1,9.2,62,0.00,CLR,SKC,0.00,512.0,WeatherDisplay:10.37,2016-02-14 14:04:00,
2016-02-14 09:09:00,67.1,53.6,30.22,NE,56,5.0,8.1,62,0.00,CLR,SKC,0.00,199.0,WeatherDisplay:10.37,2016-02-14 14:09:00,
2016-02-14 09:19:00,68.2,54.2,30.22,NE,55,3.3,6.0,61,0.00,CLR,SKC,0.00,608.0,WeatherDisplay:10.37,2016-02-14 14:19:00,
2016-02-14 09:24:00,68.7,53.8,30.22,NE,50,7.1,15.0,59,0.00,CLR,SKC,0.00,601.0,WeatherDisplay:10.37,2016-02-14 14:24:00,
2016-02-14 09:29:00,68.4,54.0,30.22,East,91,3.7,8.1,60,0.00,CLR,SKC,0.00,582.0,WeatherDisplay:10.37,2016-02-14 14:29:00,
2016-02-14 09:34:00,68.3,53.4,30.23,NNW,348,2.5,9.2,59,0.00,CLR,SKC,0.00,102.0,WeatherDisplay:10.37,2016-02-14 14:34:00,
2016-02-14 09:39:00,67.8,53.4,30.22,NNE,13,6.2,7.0,60,0.00,SCT,SKC,0.00,107.0,WeatherDisplay:10.37,2016-02-14 14:39:00,
2016-02-14 09:49:00,69.2,54.3,30.23,SE,144,4.9,10.0,59,0.00,CLR,SKC,0.00,619.0,WeatherDisplay:10.37,2016-02-14 14:49:00,
2016-02-14 09:54:00,69.6,53.7,30.23,NE,48,3.3,5.8,57,0.00,CLR,SKC,0.00,88.0,WeatherDisplay:10.37,2016-02-14 14:54:00,
2016-02-14 09:59:00,68.9,54.0,30.24,NNE,31,4.2,8.1,59,0.00,FEW,SKC,0.00,701.0,WeatherDisplay:10.37,2016-02-14 14:59:00,
2016-02-14 10:04:00,69.3,53.9,30.23,NE,49,4.3,13.0,58,0.00,SCT,SKC,0.00,243.0,WeatherDisplay:10.37,2016-02-14 15:04:00,
2016-02-14 10:09:00,68.5,53.1,30.24,ENE,73,3.5,6.0,58,0.00,SCT,SKC,0.00,162.0,WeatherDisplay:10.37,2016-02-14 15:09:00,
2016-02-14 10:14:00,68.5,54.5,30.24,NE,42,6.1,13.0,61,0.00,BKN,SKC,0.00,679.0,WeatherDisplay:10.37,2016-02-14 15:14:00,
2016-02-14 10:24:00,68.6,52.8,30.25,ESE,106,6.1,8.1,57,0.00,FEW,SKC,0.00,619.0,WeatherDisplay:10.37,2016-02-14 15:24:00,
2016-02-14 10:29:00,69.0,53.6,30.25,ENE,59,3.5,9.2,58,0.00,FEW,SKC,0.00,638.0,WeatherDisplay:10.37,2016-02-14 15:29:00,
2016-02-14 10:34:00,70.1,54.6,30.25,ENE,68,5.5,8.0,58,0.00,CLR,SKC,0.00,610.0,WeatherDisplay:10.37,2016-02-14 15:34:00,
2016-02-14 10:39:00,70.4,54.9,30.25,NE,48,5.1,8.1,58,0.00,CLR,SKC,0.00,612.0,WeatherDisplay:10.37,2016-02-14 15:39:00,
2016-02-14 10:44:00,70.6,55.1,30.25,ENE,70,5.5,8.0,58,0.00,CLR,SKC,0.00,691.0,WeatherDisplay:10.37,2016-02-14 15:44:00,
2016-02-14 10:49:00,69.8,54.8,30.25,ENE,59,5.0,9.2,59,0.00,FEW,SKC,0.00,123.0,WeatherDisplay:10.37,2016-02-14 15:49:00,
2016-02-14 10:54:00,69.4,54.9,30.25,NNE,23,4.1,7.0,60,0.00,BKN,SKC,0.00,176.0,WeatherDisplay:10.37,2016-02-14 15:54:00,
2016-02-14 10:59:00,68.8,54.8,30.25,ESE,106,4.9,8.1,61,0.00,BKN,SKC,0.00,250.0,WeatherDisplay:10.37,2016-02-14 15:59:00,
2016-02-14 11:04:00,68.4,54.9,30.25,East,100,4.5,5.8,62,0.00,BKN,SKC,0.00,214.0,WeatherDisplay:10.37,2016-02-14 16:04:00,
2016-02-14 11:09:00,69.4,55.8,30.25,ENE,70,6.4,10.0,62,0.00,BKN,SKC,0.00,847.0,WeatherDisplay:10.37,2016-02-14 16:09:00,
2016-02-14 11:14:00,69.4,55.4,30.25,NNE,14,6.4,11.5,61,0.00,SCT,SKC,0.00,255.0,WeatherDisplay:10.37,2016-02-14 16:14:00,
2016-02-14 11:19:00,69.2,54.7,30.25,ESE,123,8.2,12.7,60,0.00,BKN,SKC,0.00,272.0,WeatherDisplay:10.37,2016-02-14 16:19:00,
2016-02-14 11:24:00,68.8,54.3,30.24,East,97,7.7,11.5,60,0.00,SCT,SKC,0.00,357.0,WeatherDisplay:10.37,2016-02-14 16:24:00,
2016-02-14 11:30:00,69.3,55.3,30.24,East,98,4.2,6.0,61,0.00,SCT,SKC,0.00,381.0,WeatherDisplay:10.37,2016-02-14 16:30:00,
2016-02-14 11:35:00,69.7,54.7,30.24,East,79,9.0,14.0,59,0.00,SCT,SKC,0.00,954.0,WeatherDisplay:10.37,2016-02-14 16:35:00,
2016-02-14 11:40:00,69.5,54.5,30.24,NE,36,8.2,10.4,59,0.00,SCT,SKC,0.00,374.0,WeatherDisplay:10.37,2016-02-14 16:40:00,
2016-02-14 11:45:00,69.7,54.7,30.24,North,11,4.7,8.1,59,0.00,SCT,SKC,0.00,452.0,WeatherDisplay:10.37,2016-02-14 16:45:00,
2016-02-14 11:50:00,70.5,54.5,30.24,ESE,106,8.2,9.2,57,0.00,FEW,SKC,0.00,292.0,WeatherDisplay:10.37,2016-02-14 16:50:00,
2016-02-14 11:55:00,70.0,53.6,30.23,SE,126,4.9,12.7,56,0.00,FEW,SKC,0.00,833.0,WeatherDisplay:10.37,2016-02-14 16:55:00,
2016-02-14 12:00:00,70.6,54.1,30.23,ENE,58,6.6,11.5,56,0.00,SCT,SKC,0.00,728.0,WeatherDisplay:10.37,2016-02-14 17:00:00,
2016-02-14 12:05:00,70.3,53.9,30.23,NE,40,4.3,8.1,56,0.00,FEW,SKC,0.00,759.0,WeatherDisplay:10.37,2016-02-14 17:05:00,
2016-02-14 12:10:00,71.0,54.0,30.23,East,98,5.2,6.9,55,0.00,SCT,SKC,0.00,775.0,WeatherDisplay:10.37,2016-02-14 17:10:00,
2016-02-14 12:15:00,70.1,53.2,30.23,ESE,103,6.3,6.9,55,0.00,CLR,SKC,0.00,399.0,WeatherDisplay:10.37,2016-02-14 17:15:00,
2016-02-14 12:20:00,71.1,54.1,30.23,ESE,108,6.0,8.1,55,0.00,FEW,SKC,0.00,928.0,WeatherDisplay:10.37,2016-02-14 17:20:00,
2016-02-14 12:25:00,71.1,54.1,30.23,ENE,62,6.8,10.4,55,0.00,CLR,SKC,0.00,608.0,WeatherDisplay:10.37,2016-02-14 17:25:00,
2016-02-14 12:30:00,71.0,53.0,30.23,ENE,63,3.5,6.9,53,0.00,CLR,SKC,0.00,821.0,WeatherDisplay:10.37,2016-02-14 17:30:00,
2016-02-14 12:35:00,70.7,53.2,30.22,East,89,8.7,12.7,54,0.00,CLR,SKC,0.00,816.0,WeatherDisplay:10.37,2016-02-14 17:35:00,
2016-02-14 12:40:00,71.0,53.5,30.22,ESE,110,4.1,11.5,54,0.00,CLR,SKC,0.00,853.0,WeatherDisplay:10.37,2016-02-14 17:40:00,
2016-02-14 12:45:00,70.6,53.6,30.22,East,90,8.3,14.0,55,0.00,CLR,SKC,0.00,809.0,WeatherDisplay:10.37,2016-02-14 17:45:00,
2016-02-14 12:50:00,70.7,53.2,30.22,ESE,104,7.0,11.5,54,0.00,CLR,SKC,0.00,802.0,WeatherDisplay:10.37,2016-02-14 17:50:00,
2016-02-14 12:55:00,70.8,53.3,30.22,NE,46,6.6,11.5,54,0.00,CLR,SKC,0.00,833.0,WeatherDisplay:10.37,2016-02-14 17:55:00,
2016-02-14 13:00:00,71.0,53.0,30.21,ESE,111,4.5,8.1,53,0.00,CLR,SKC,0.00,833.0,WeatherDisplay:10.37,2016-02-14 18:00:00,
2016-02-14 13:05:00,70.9,52.9,30.21,East,81,5.3,11.5,53,0.00,CLR,SKC,0.00,271.0,WeatherDisplay:10.37,2016-02-14 18:05:00,
2016-02-14 13:10:00,70.7,53.7,30.21,SE,134,7.9,10.4,55,0.00,FEW,SKC,0.00,821.0,WeatherDisplay:10.37,2016-02-14 18:10:00,
2016-02-14 13:15:00,71.1,54.1,30.20,ENE,72,5.4,8.1,55,0.00,FEW,SKC,0.00,782.0,WeatherDisplay:10.37,2016-02-14 18:15:00,
2016-02-14 13:20:00,71.9,54.3,30.20,SE,127,8.2,12.7,54,0.00,CLR,SKC,0.00,747.0,WeatherDisplay:10.37,2016-02-14 18:20:00,
2016-02-14 13:25:00,71.0,54.5,30.20,ESE,110,5.9,10.4,56,0.00,CLR,SKC,0.00,759.0,WeatherDisplay:10.37,2016-02-14 18:25:00,
2016-02-14 13:30:00,71.2,54.2,30.20,ESE,110,7.7,16.1,55,0.00,CLR,SKC,0.00,756.0,WeatherDisplay:10.37,2016-02-14 18:30:00,
2016-02-14 13:35:00,71.4,55.4,30.19,ESE,111,6.1,15.0,57,0.00,CLR,SKC,0.00,756.0,WeatherDisplay:10.37,2016-02-14 18:35:00,
2016-02-14 13:40:00,71.0,55.0,30.19,ESE,122,6.5,11.5,57,0.00,CLR,SKC,0.00,185.0,WeatherDisplay:10.37,2016-02-14 18:40:00,
2016-02-14 13:45:00,71.0,55.0,30.19,ENE,75,8.6,10.4,57,0.00,FEW,SKC,0.00,724.0,WeatherDisplay:10.37,2016-02-14 18:45:00,
2016-02-14 13:50:00,70.9,55.9,30.19,East,82,5.6,11.5,59,0.00,FEW,SKC,0.00,715.0,WeatherDisplay:10.37,2016-02-14 18:50:00,
2016-02-14 13:55:00,71.2,55.2,30.18,ESE,116,9.6,12.7,57,0.00,CLR,SKC,0.00,703.0,WeatherDisplay:10.37,2016-02-14 18:55:00,
2016-02-14 14:00:00,71.2,55.7,30.18,SSE,165,8.2,10.0,58,0.00,CLR,SKC,0.00,686.0,WeatherDisplay:10.37,2016-02-14 19:00:00,
2016-02-14 14:05:00,71.2,55.7,30.18,SE,128,6.8,10.4,58,0.00,CLR,SKC,0.00,675.0,WeatherDisplay:10.37,2016-02-14 19:05:00,
2016-02-14 14:10:00,71.4,56.3,30.18,ESE,102,4.5,6.9,59,0.00,CLR,SKC,0.00,668.0,WeatherDisplay:10.37,2016-02-14 19:10:00,
2016-02-14 14:15:00,71.5,55.5,30.18,SE,124,8.0,11.5,57,0.00,CLR,SKC,0.00,677.0,WeatherDisplay:10.37,2016-02-14 19:15:00,
2016-02-14 14:20:00,71.1,56.0,30.18,SSE,157,8.8,10.4,59,0.00,CLR,SKC,0.00,707.0,WeatherDisplay:10.37,2016-02-14 19:20:00,
2016-02-14 14:25:00,70.8,56.2,30.18,SSE,153,5.2,10.4,60,0.00,CLR,SKC,0.00,657.0,WeatherDisplay:10.37,2016-02-14 19:25:00,
2016-02-14 14:30:00,71.4,56.8,30.18,East,98,7.3,11.5,60,0.00,CLR,SKC,0.00,691.0,WeatherDisplay:10.37,2016-02-14 19:30:00,
2016-02-14 14:35:00,71.1,56.5,30.17,East,80,4.8,9.0,60,0.00,CLR,SKC,0.00,803.0,WeatherDisplay:10.37,2016-02-14 19:35:00,
2016-02-14 14:40:00,71.3,56.7,30.18,East,86,6.2,9.2,60,0.00,CLR,SKC,0.00,524.0,WeatherDisplay:10.37,2016-02-14 19:40:00,
2016-02-14 14:45:00,71.0,56.9,30.18,ENE,77,5.9,8.1,61,0.00,CLR,SKC,0.00,141.0,WeatherDisplay:10.37,2016-02-14 19:45:00,
2016-02-14 14:50:00,70.7,57.0,30.17,ESE,114,5.0,6.0,62,0.00,BKN,SKC,0.00,178.0,WeatherDisplay:10.37,2016-02-14 19:50:00,
2016-02-14 14:55:00,70.5,56.9,30.17,ESE,115,8.0,10.4,62,0.00,BKN,SKC,0.00,163.0,WeatherDisplay:10.37,2016-02-14 19:55:00,
2016-02-14 15:00:00,70.1,56.5,30.17,ESE,122,6.5,11.5,62,0.00,BKN,SKC,0.00,167.0,WeatherDisplay:10.37,2016-02-14 20:00:00,
2016-02-14 15:05:00,69.9,56.3,30.17,SE,132,5.3,10.4,62,0.00,BKN,SKC,0.00,186.0,WeatherDisplay:10.37,2016-02-14 20:05:00,
2016-02-14 15:15:00,69.6,56.0,30.17,East,81,4.6,8.1,62,0.00,BKN,SKC,0.00,100.0,WeatherDisplay:10.37,2016-02-14 20:15:00,
2016-02-14 15:20:00,69.4,55.8,30.17,ESE,107,4.9,9.2,62,0.00,BKN,SKC,0.00,100.0,WeatherDisplay:10.37,2016-02-14 20:20:00,
2016-02-14 15:30:00,68.9,55.8,30.17,SSE,150,8.5,11.5,63,0.00,BKN,SKC,0.00,144.0,WeatherDisplay:10.37,2016-02-14 20:30:00,
2016-02-14 15:35:00,68.8,55.7,30.17,SSE,165,7.5,8.1,63,0.00,BKN,SKC,0.00,172.0,WeatherDisplay:10.37,2016-02-14 20:35:00,
2016-02-14 15:40:00,69.0,55.9,30.17,ESE,120,5.7,8.1,63,0.00,BKN,SKC,0.00,183.0,WeatherDisplay:10.37,2016-02-14 20:40:00,
2016-02-14 15:45:00,69.2,56.1,30.17,ENE,63,8.6,11.5,63,0.00,BKN,SKC,0.00,199.0,WeatherDisplay:10.37,2016-02-14 20:45:00,
2016-02-14 15:50:00,69.4,56.3,30.17,ESE,112,6.3,8.1,63,0.00,BKN,SKC,0.00,192.0,WeatherDisplay:10.37,2016-02-14 20:50:00,
2016-02-14 15:55:00,69.5,56.3,30.17,SE,132,8.0,10.4,63,0.00,BKN,SKC,0.00,172.0,WeatherDisplay:10.37,2016-02-14 20:55:00,
2016-02-14 16:05:00,69.4,55.8,30.17,East,85,5.6,8.0,62,0.00,BKN,SKC,0.00,137.0,WeatherDisplay:10.37,2016-02-14 21:05:00,
2016-02-14 16:10:00,69.4,56.3,30.17,ESE,109,7.7,11.0,63,0.00,BKN,SKC,0.00,123.0,WeatherDisplay:10.37,2016-02-14 21:10:00,
2016-02-14 16:20:00,69.0,56.3,30.17,SE,125,8.0,13.8,64,0.00,BKN,SKC,0.00,84.0,WeatherDisplay:10.37,2016-02-14 21:20:00,
2016-02-14 16:25:00,68.8,56.6,30.17,East,91,7.7,11.5,65,0.00,BKN,SKC,0.00,79.0,WeatherDisplay:10.37,2016-02-14 21:25:00,
2016-02-14 16:30:00,68.7,56.0,30.17,ESE,111,7.8,9.2,64,0.00,BKN,SKC,0.00,81.0,WeatherDisplay:10.37,2016-02-14 21:30:00,
2016-02-14 16:35:00,68.6,56.4,30.17,ESE,108,5.9,8.0,65,0.00,BKN,SKC,0.00,83.0,WeatherDisplay:10.37,2016-02-14 21:35:00,
2016-02-14 16:40:00,68.6,56.4,30.17,ENE,71,6.7,9.2,65,0.00,BKN,SKC,0.00,67.0,WeatherDisplay:10.37,2016-02-14 21:40:00,
2016-02-14 16:45:00,68.6,56.4,30.17,East,100,5.2,8.0,65,0.00,BKN,SKC,0.00,63.0,WeatherDisplay:10.37,2016-02-14 21:45:00,
2016-02-14 16:50:00,68.5,56.3,30.17,East,100,6.9,9.2,65,0.00,BKN,SKC,0.00,51.0,WeatherDisplay:10.37,2016-02-14 21:50:00,
2016-02-14 16:55:00,68.4,56.2,30.17,ESE,103,6.9,12.0,65,0.00,BKN,SKC,0.00,35.0,WeatherDisplay:10.37,2016-02-14 21:55:00,
2016-02-14 17:00:00,68.3,56.5,30.17,SE,132,8.2,8.2,66,0.00,BKN,SKC,0.00,40.0,WeatherDisplay:10.37,2016-02-14 22:00:00,
2016-02-14 17:05:00,68.3,56.1,30.17,East,92,8.4,11.5,65,0.00,BKN,SKC,0.00,46.0,WeatherDisplay:10.37,2016-02-14 22:05:00,